Weather History for FBFT - October, 2011

Change the Weather History Date:

Sunday, October 30, 2011

  Actual Average Record
Temperature  
Mean Temperature 83 °F -  
Max Temperature 99 °F 86 °F 100 °F (1998)
Min Temperature 67 °F 64 °F 51 °F (2014)
Cooling Degree Days 18    
Growing Degree Days 33 (Base 50)    
Moisture  
Dew Point 58 °F    
Average Humidity 45    
Maximum Humidity 83    
Minimum Humidity 13    
Precipitation  
Precipitation 0.00 in - - ()
Sea Level Pressure  
Sea Level Pressure 29.93 in    
Wind  
Wind Speed 6 mph ()    
Max Wind Speed 17 mph    
Max Gust Speed -    
Visibility 6.2 miles    
Events      
Averages and records for this station are not official NWS values.
T = Trace of Precipitation, MM = Missing Value Source: Averaged Metar Reports

Daily Weather History Graph

Daily Weather History Graph

Search for Another Location

Airport or City:

Trip Planner

Search our weather history database for the weather conditions in past years. The results will help you decide how hot, cold, wet, or windy it might be!

Date:

Astronomy

Oct. 30, 2011 Rise Set
Actual Time 5:28 AM CAT 6:19 PM CAT
Civil Twilight 5:05 AM CAT 6:42 PM CAT
Nautical Twilight 4:38 AM CAT 7:09 PM CAT
Astronomical Twilight 4:10 AM CAT 7:37 PM CAT
Moon 8:34 AM CAT (10/30) 10:18 PM CAT (10/30)
Length of Visible Light 13h 36m
Length of Day
12h 50m
Waxing Crescent, 18% of the Moon is Illuminated
Oct 30
Waxing Crescent
Nov 2
First Quarter
Nov 10
Full
Nov 18
Last Quarter
Nov 25
New

Hourly Weather History & Observations

Time (CAT) Temp. Heat Index Dew Point Humidity Pressure Visibility Wind Dir Wind Speed Gust Speed Precip Events Conditions
12:00 AM 75.2 °F - 64.4 °F 69% 29.98 in 6.2 mi East 10.4 mph - N/A   Scattered Clouds
1:00 AM 73.4 °F - 64.4 °F 73% 29.98 in - ESE 8.1 mph - N/A   Clear
3:00 AM 69.8 °F - 64.4 °F 83% 29.95 in - South 4.6 mph - N/A   Clear
4:00 AM 71.6 °F - 62.6 °F 73% 29.95 in - South 3.5 mph - N/A   Clear
5:00 AM 69.8 °F - 62.6 °F 78% 29.95 in - South 3.5 mph - N/A   Clear
6:00 AM 68.0 °F - 62.6 °F 83% 29.98 in - SSE 4.6 mph - N/A   Clear
7:00 AM 73.4 °F - 62.6 °F 69% 30.01 in - ESE 4.6 mph - N/A   Clear
8:00 AM 77 °F - 61 °F 49%  in 6 mi East 5.8 mph - -   Partly Cloudy
8:00 AM 77.0 °F - 60.8 °F 57% 30.01 in - East 5.8 mph - N/A   Clear
9:00 AM 84.2 °F 84.4 °F 60.8 °F 45% 30.01 in - Variable 2.3 mph - N/A   Clear
10:00 AM 91.4 °F 91.4 °F 60.8 °F 36% 29.98 in - NE 6.9 mph - N/A   Clear
11:00 AM 96.8 °F - 51.8 °F 22% 29.95 in 6.2 mi NNW 17.3 mph - N/A   Partly Cloudy
1:00 PM 100.4 °F 98.4 °F 53.6 °F 21% 29.89 in 6.2 mi North 12.7 mph - N/A   Partly Cloudy
2:00 PM 97 °F - 52 °F 13%  in 6 mi NNW 11.5 mph - -   Haze
2:00 PM 96.8 °F - 51.8 °F 22% 29.86 in 6.2 mi NNW 11.5 mph - N/A   Scattered Clouds
3:00 PM 96.8 °F - 51.8 °F 22% 29.86 in 6.2 mi NNW 10.4 mph - N/A   Scattered Clouds
5:00 PM 96.8 °F - 51.8 °F 22% 29.83 in 6.2 mi NW 11.5 mph - N/A   Partly Cloudy
6:00 PM 95.0 °F - 51.8 °F 23% 29.83 in 6.2 mi NNW 8.1 mph - N/A   Scattered Clouds
7:00 PM 89.6 °F 88.9 °F 59.0 °F 36% 29.86 in 6.2 mi NNE 3.5 mph - N/A   Scattered Clouds
8:00 PM 86 °F - 58 °F 29%  in 6 mi NE 4.6 mph - -   Partly Cloudy
8:00 PM 86.0 °F 85.4 °F 59.0 °F 40% 29.89 in 6.2 mi NE 4.6 mph - N/A   Scattered Clouds
9:00 PM 84.2 °F 83.0 °F 55.4 °F 37% 29.89 in 6.2 mi NNE 4.6 mph - N/A   Scattered Clouds
10:00 PM 82.4 °F 81.4 °F 53.6 °F 37% 29.89 in 6.2 mi NE 4.6 mph - N/A   Scattered Clouds
11:00 PM 80.6 °F 80.5 °F 55.4 °F 42% 29.89 in 6.2 mi Variable 2.3 mph - N/A   Partly Cloudy